Miscellaneous Local Product
Issued by NWS North Platte, NE

Home | Current Version | Previous Version | Graphics & Text | Print | Product List | Glossary On
Versions: 1 2 3 4 5 6 7 8 9 10 11 12 13 14 15 16 17 18 19 20 21 22 23 24 25 26 27 28 29 30 31 32 33 34 35 36 37 38 39 40 41 42 43 44 45 46 47 48 49 50
000
AXUS43 KLBF 160510
MISLBF


WESTERN AND NORTH CENTRAL NEBRASKA HOURLY WEATHER ROUNDUP
NATIONAL WEATHER SERVICE NORTH PLATTE NE
1100 PM CST WED NOV 15 2017

NOTE: "FAIR" INDICATES FEW OR NO CLOUDS BELOW 12,000 FEET WITH NO
SIGNIFICANT WEATHER AND/OR OBSTRUCTIONS TO VISIBILITY.

NOTE: STATIONS NOT REPORTING VARIABLES SUCH AS SKY/WEATHER OR
PRESSURE ARE PROVIDED BY RAWS AND APRS NETWORKS AND ARE NOT UNDER
NATIONAL WEATHER SERVICE QUALITY CONTROL.

...OBSERVATIONS IN AND NEAR THE EASTERN PANHANDLE OF NEBRASKA...

CITY           SKY/WX    TMP DP  RH WIND       PRES   REMARKS
PINE RIDGE     CLOUDY    46  23  40 S22G33    29.94F
GORDON         FAIR      32  25  74 SE5       29.98F WCI  27
CHADRON        CLEAR     41  23  48 SW12      29.93S
ALLIANCE       CLOUDY    35  23  61 S12       29.98F WCI  27
SIDNEY         CLOUDY    39  23  52 S12       30.03F WCI  32
CRESCENT LAKE    N/A     39  23  53 S13         N/A  WCI  31
$$

...OBSERVATIONS IN NORTHERN NEBRASKA AND FAR SOUTHERN SOUTH DAKOTA...

CITY           SKY/WX    TMP DP  RH WIND       PRES   REMARKS
WINNER         FAIR      25  20  81 SE9       30.15F WCI  15
VALENTINE      PTCLDY    30  24  78 E6        30.10F WCI  24
THEDFORD       CLOUDY    34  25  70 SE6       30.10F WCI  29
AINSWORTH      CLOUDY    28  25  91 SE7       30.11F WCI  20
O`NEILL        PTCLDY    25  23  92 CALM      30.18F
ORD            CLOUDY    27  23  85 E3        30.17S
BROKEN BOW     PTCLDY    37  27  67 SE7       30.14F WCI  32
VALENTINE NWR    N/A     50  26  39 SE7         N/A
HALSEY           N/A     35  22  58 SE6         N/A  WCI  30
BUTTE            N/A     25  20  82 E7          N/A  WCI  17
EWING            N/A     24  21  87 CALM        N/A
$$

...OBSERVATIONS IN SOUTHWEST NEBRASKA AND FAR NORTHEAST COLORADO...

CITY           SKY/WX    TMP DP  RH WIND       PRES   REMARKS
HOLYOKE        FAIR      37  25  60 S7        30.08F WCI  32
IMPERIAL       PTCLDY    41  23  48 S9        30.10F
OGALLALA       CLOUDY    41  24  50 S3        30.06F
NORTH PLATTE   PTCLDY    34  27  75 E8        30.11F WCI  27
MCCOOK         PTCLDY    38  24  57 S9        30.13F WCI  31
LEXINGTON      CLOUDY    33  25  73 SE5       30.14F WCI  28
STAPLETON        N/A     37  24  60 CALM        N/A
GOTHENBURG       N/A     34  23  63 CALM        N/A
CALLAWAY         N/A     32  26  78 S6          N/A  WCI  26
$$

...OBSERVATIONS IN CENTRAL LINCOLN COUNTY AREA...

CITY           SKY/WX    TMP DP  RH WIND       PRES   REMARKS
N.P. AIRPORT   PTCLDY    34  27  75 E8        30.11F WCI  27
N.P. DOWNTOWN    N/A     38  26  62 CALM        N/A
N.P. SOUTHEAST   N/A     38  25  59 E3          N/A
N.P. HILLCREST   N/A     39  26  58 S7          N/A  WCI  34
$$

...SOME OBSERVATIONS FROM AROUND THE REGION...

CITY           SKY/WX    TMP DP  RH WIND       PRES   REMARKS
DENVER         CLOUDY    37  21  52 SW9       30.02F WCI  30
LIMON          CLOUDY    19  16  88 CALM      30.06F
ASPEN          CLOUDY    33  14  45 SE6       30.13F WCI  28
LARAMIE        CLOUDY    36  16  44 SW12      30.01F WCI  28
CASPER         CLEAR     41  17  38 SW10      29.88F
CHEYENNE       CLOUDY    35  21  56 SW5       30.00F WCI  31
SCOTTSBLUFF    CLOUDY    34  22  61 SE12      29.95F WCI  25
GRAND ISLAND   CLOUDY    31  26  82 SE8       30.20S WCI  23
OMAHA          CLOUDY    28  22  78 N7        30.23R WCI  21
SIOUX FALLS    CLOUDY    20  16  84 CALM      30.20F
PIERRE         CLOUDY    18  13  80 E7        30.14F WCI   9
RAPID CITY     CLOUDY    25  20  81 SE3       29.95F
BISMARCK       CLOUDY    18  14  84 E7        30.19F WCI   9
KANSAS CITY    CLOUDY    36  28  73 N8        30.21R WCI  30
HILL CITY      CLOUDY    41  28  60 CALM      30.18S
WICHITA        MOCLDY    39  33  79 CALM      30.20S
DODGE CITY     CLOUDY    38  24  57 S8        30.18F WCI  32
OKLAHOMA CITY  MOCLDY    48  33  56 N8        30.18S
DALLAS         DRIZZLE   65  61  87 NE8       30.10R
AMARILLO       CLOUDY    43  29  57 SE8       30.20S
$$




USA.gov is the U.S. government's official web portal to all federal, state and local government web resources and services.